COSMOS 2215

Satellite information

Favourite Embed

Satellite Type and Status

PAYLOADIN ORBIT

Key statistics

Satellite COSMOS 2215 at a glance.

Uptime

12107

Days in orbit

Revolutions

≈ 12.6

Per day

Orbit

LEO

Low Earth Orbit

Inclination

82.6

Latest

Satellite identification and parameters

Extended collection of information and parameters for COSMOS 2215.

Object identification

Identified? True

Debris? False

Object name: COSMOS 2215

International designator: 1992-068E

Object number (NORAD): 22186

Object ID (CCSDS): 22186

Country: COMMONWEALTH OF INDEPENDENT STATES (CIS)

Current information (Y/N): Y

RCS size: MEDIUM

Orbital parameters

Period: 114.199 minutes

Inclination: 82.5993 deg

SMA: 7797.13 km

Apoapsis: 1428.426 km

Periapsis: 1409.565 km

RAAN: 131.4306 deg

Eccentricy: 0.00120948

Argument of periapsis: 237.9111 deg

Mean anomaly: 122.0805 deg

Mean motion: 12.60957818 rev/day

Mean motion (dot): 0.00000057 rev/day2

B* drag term: 0.00026347574 1/REarth

Two-line elements (TLE)

Creation date: Dec. 12, 2025, 10:14 a.m.

Reference frame: TEME

Reference center: EARTH

Epoch: Dec. 12, 2025, 3:17 a.m. UTC

TLE line 0: 0 COSMOS 2215

TLE line 1: 1 22186U 92068E 25346.13695445 .00000057 00000-0 26348-3 0 9999

TLE line 2: 2 22186 82.5993 131.4306 0012095 237.9111 122.0805 12.60957818525294

Live tracking on map

Real-time ground track for satellite COSMOS 2215.

In-orbit conjunctions

A list of the most updated potential collisions computed for object COSMOS 2215.

Target Orbit TCA Probability of collision Miss distance Type
OPS 6630 DEB SSO 2025-07-26 23:18:12 0.0003987297 415.0 (m) DEBRIS

Associated space launch

Second generation store-dump military communications satellite

COSMOS 2215 was lifted into orbit during the mission ‘Tsiklon-3 | Strela-3 83 to 88’, on board a Tsiklon-3 space rocket.

The launch took place on Oct. 20, 1992, 12:58 p.m. from 32/1.

For more information about the launch, click the button.

Launch to space Tsiklon-3 | Strela-3 83 to 88
Tsiklon-3 | Strela-3 83 to 88

Agency: N/A

Status: Launch Successful

Launch date: Oct. 20, 1992, 12:58 p.m. UTC

Rocket: Tsiklon-3

Launch pad: 32/1

Location: Plesetsk Cosmodrome, Russian Federation

...

Latest news about this satellite

There are no fresh news available about this satellite. Check back as we update our databases every day.


Newsletter sign-up

Weekly statistics, charts and insights to help you stay on top of the space industry.